Regional Weather Roundup
Issued by NWS Cleveland, OH

Home | Current Version | Previous Version | Graphics & Text | Print | Product List | Glossary On
Versions: 1 2 3 4 5 6 7 8 9 10 11 12 13 14 15 16 17 18 19 20 21 22 23 24 25 26 27 28 29 30 31 32 33 34 35 36 37 38 39 40 41 42 43 44 45 46 47 48 49 50
569
ASUS41 KCLE 300502
RWRCLE
OHIO REGIONAL WEATHER ROUNDUP
NATIONAL WEATHER SERVICE CLEVELAND, OH
100 AM EDT TUE MAY 30 2017

NOTE: "FAIR" INDICATES FEW OR NO CLOUDS BELOW 12,000 FEET WITH NO
SIGNIFICANT WEATHER AND/OR OBSTRUCTIONS TO VISIBILITY.

OHZ001>008-015>018-024>027-034-035-043-044-300600-
   NORTHWEST OHIO

CITY           SKY/WX    TMP DP  RH WIND       PRES   REMARKS
DEFIANCE       CLOUDY    58  54  86 S3        29.91S
FINDLAY        CLOUDY    61  53  75 SW3       29.91R
TOLEDO EXPRESS CLOUDY    58  55  90 CALM      29.90S
TOLEDO EXEC    LGT RAIN  64  56  75 SW6       29.92R
LIMA           CLOUDY    64  55  72 SW10      29.94R
$$

OHZ009>014-019>023-028>033-038-089-300600-
   NORTHEAST OHIO

CITY           SKY/WX    TMP DP  RH WIND       PRES   REMARKS
CLE-HOPKINS    CLOUDY    63  56  78 S8        29.93F
CLE-LAKEFRONT  CLOUDY    66  52  60 S14G23    29.90R
CUY CO. ARPT   NOT AVBL
LORAIN-ELYRIA  MOCLDY    61  50  67 SW8       29.92F
ASHTABULA      MOCLDY    63  57  81 SE6       29.91S
AKRON-CANTON   LGT RAIN  63  53  70 W13       29.97R
WOOSTER        LGT RAIN  60  55  83 SW10      29.97S
MANSFIELD      CLOUDY    61  55  81 S13       29.94F
YOUNGSTOWN     MOCLDY    64  54  69 S8        29.93S
$$

OHZ042-051>053-060>062-070>072-077>081-300600-
  SOUTHWEST OHIO

CITY           SKY/WX    TMP DP  RH WIND       PRES   REMARKS
CINC-COVINGTON MOCLDY    67  57  70 S8        29.95S
CINC-LUNKEN    CLEAR     67  59  75 SW7       29.95R
HAMILTON       PTCLDY    69  57  65 SW5       29.94S
DAYTON         CLOUDY    63  56  78 CALM      29.95R
WRIGHT-PAT AFB CLOUDY    65  58  78 NW9       29.95R
DAYTON GENERAL CLEAR     62  54  74 S7        29.93S
WILMINGTON     CLEAR     64  58  80 S7        29.95R
$$

OHZ036-037-039>041-045>050-054>059-063>069-073>076-082>088-300600-
  CENTRAL AND SOUTHEAST OHIO

CITY           SKY/WX    TMP DP  RH WIND       PRES   REMARKS
COLUMBUS       CLOUDY    66  55  67 E7        29.94S
OSU AIRPORT    CLOUDY    62  59  90 S5        29.93F
BOLTON FIELD   CLOUDY    64  56  76 SE3       29.95S
RICKENBACK AFB CLOUDY    67  58  72 CALM      29.95R
NEWARK         PTCLDY    64  54  69 NW7       29.97R
MARION         MOCLDY    62  55  77 S16G22    29.94R
LANCASTER      CLEAR     68  57  68 S6        29.95R
ZANESVILLE     PTCLDY    61  58  90 S5        29.96S
NEW PHILLY     NOT AVBL
$$




USA.gov is the U.S. government's official web portal to all federal, state and local government web resources and services.